This demonstration page uses our WeatherBlox Daily Observations layout. Learn more.

Left ArrowRight Arrow

Hourly Observations for January 1, 2022

Temp ( °F °C ) Dew Point ( °F °C ) Humidity (%) Winds ( mph kmh ) Pressure ( in mb ) Visibility ( mi km ) Precip ( " mm )
12:52 am 00:52 Mostly Cloudy 9 -12.8 2 -16.7 73 73 N 24 39 30.02 1017 10 16 0.00 0.00
1:52 am 01:52 Mostly Cloudy 7 -13.9 -1 -18.3 70 70 N 21 33 30.04 1017 10 16 0.00 0.00
2:52 am 02:52 Cloudy 7 -13.9 -2 -18.9 66 66 N 24 39 30.06 1018 10 16 0.00 0.00
3:52 am 03:52 Cloudy 6 -14.4 -4 -20 63 63 N 25 41 30.06 1018 10 16 0.00 0.00
4:52 am 04:52 Cloudy 5 -15 -4 -20 66 66 N 20 31 30.05 1018 10 16 0.00 0.00
5:52 am 05:52 Cloudy 4 -15.6 -5 -20.6 66 66 N 25 41 30.06 1018 10 16 0.00 0.00
6:52 am 06:52 Cloudy 4 -15.6 -6 -21.1 63 63 N 23 37 30.10 1019 10 16 0.00 0.00
7:52 am 07:52 Cloudy 4 -15.6 -7 -21.7 60 60 N 22 35 30.10 1019 10 16 0.00 0.00
8:52 am 08:52 Cloudy 4 -15.6 -7 -21.7 60 60 N 25 41 30.13 1020 10 16 0.00 0.00
9:52 am 09:52 Cloudy 4 -15.6 -7 -21.7 60 60 NNW 20 31 30.18 1022 10 16 0.00 0.00
10:52 am 10:52 Cloudy 3 -16.1 -7 -21.7 62 62 NNW 23 37 30.19 1023 10 16 0.00 0.00
11:06 am 11:06 Windy with Snow Likely 3 -16.1 -7 -21.7 62 62 NNW 28 44 30.25 1024 2 3 0.00 0.00
11:17 am 11:17 Mostly Cloudy with Snow 2 -16.7 -5 -20.6 72 72 N 22 35 30.24 1024 1 1 0.00 0.00
11:47 am 11:47 Mostly Cloudy with Snow 1 -17 -4 -20 78 78 N 29 46 30.24 1024 1 1 0.00 0.00
11:52 am 11:52 Mostly Cloudy with Snow 2 -16.7 -4 -20 76 76 N 22 35 30.17 1022 1 1 0.00 0.00
12:52 pm 12:52 Mostly Cloudy with Snow 2 -16.7 -3 -19.4 80 80 N 23 37 30.15 1021 1 1 0.01 0.25
1:52 pm 13:52 Mostly Cloudy with Snow 2 -16.7 -3 -19.4 80 80 NNW 26 43 30.16 1021 1 1 0.02 0.51
2:37 pm 14:37 Mostly Cloudy with Light Snow 3 -16.1 -2 -18.9 79 79 N 23 37 30.23 1024 1 1 0.00 0.00
2:52 pm 14:52 Mostly Cloudy with Light Snow 3 -16.1 -2 -18.9 79 79 NNW 22 35 30.16 1021 1 1 0.01 0.25
3:31 pm 15:31 Mostly Cloudy with Light Snow 4 -15.6 -2 -18.9 76 76 N 26 43 30.23 1024 1 2 0.01 0.25
3:52 pm 15:52 Windy with Snow Likely 4 -15.6 -2 -18.9 76 76 N 23 37 30.18 1022 1 2 0.01 0.25
4:42 pm 16:42 Cloudy with Light Snow 4 -15.6 -2 -18.9 76 76 N 18 30 30.25 1024 1 2 0.00 0.00
4:52 pm 16:52 Windy with Snow Likely 4 -15.6 -2 -18.9 76 76 N 20 31 30.20 1023 1 2 0.00 0.00
5:16 pm 17:16 Cloudy with Blowing Snow 4 -15.6 -4 -20 69 69 N 18 30 30.26 1025 5 8 0.00 0.00
5:52 pm 17:52 Cloudy 5 -15 -5 -20.6 63 63 N 18 30 30.22 1023 10 16 0.00 0.00
6:52 pm 18:52 Mostly Cloudy 5 -15 -5 -20.6 63 63 N 18 30 30.24 1024 10 16 0.00 0.00
7:52 pm 19:52 Mostly Cloudy 5 -15 -5 -20.6 63 63 NNW 20 31 30.25 1025 10 16 0.00 0.00
8:52 pm 20:52 Mostly Cloudy 5 -15 -6 -21.1 60 60 NNW 18 30 30.27 1025 10 16 0.00 0.00
9:52 pm 21:52 Partly Cloudy 3 -16.1 -6 -21.1 66 66 NNW 15 24 30.30 1026 10 16 0.00 0.00
10:52 pm 22:52 Partly Cloudy 2 -16.7 -7 -21.7 65 65 NNW 14 22 30.32 1027 10 16 0.00 0.00
11:52 pm 23:52 Mostly Clear 1 -17.2 -8 -22.2 65 65 NNW 15 24 30.33 1027 10 16 0.00 0.00

Powered by AerisWeather